Regional Weather Roundup
Issued by NWS

Home | Current Version | Previous Version | Graphics & Text | Print | Product List | Glossary On
Versions: 1 2 3 4 5 6 7 8 9 10 11 12 13 14 15 16 17 18 19 20 21 22 23 24 25 26 27 28 29 30 31 32 33 34 35 36 37 38 39 40 41 42 43 44 45 46 47 48 49 50
000
ASUS45 KCYS 300010
RWRWY

WYOMING REGIONAL WEATHER ROUNDUP
NATIONAL WEATHER SERVICE CHEYENNE WY
600 PM MDT MON JUN 29 2015

NOTE:  "FAIR" INDICATES FEW OR NO CLOUDS BELOW 12,000 FEET
WITH NO SIGNIFICANT WEATHER AND/OR OBSTRUCTIONS TO VISIBILITY.

WYZ001-300100-
YELLOWSTONE NATIONAL PARK

CITY           SKY/WX    TMP DP  RH WIND       PRES   REMARKS
LK YELLOWSTONE   N/A     78  40  25 VRB3      30.37S
6HR MIN TEMP:  72; 6HR MAX TEMP:  83;

W YELLOWSTONE  NOT AVBL

$$
WYZ002>013-054>058-071-098>099-300100-
NORTHERN WYOMING

CITY           SKY/WX    TMP DP  RH WIND       PRES   REMARKS
JACKSON        FAIR      88  45  22 W5        30.21F
CODY           FAIR      91  43  18 SE10      30.10F
GREYBULL       FAIR      98  31   9 S3        30.00F HX  92
6HR MIN TEMP:  90; 6HR MAX TEMP:  99;

WORLAND        FAIR      95  36  12 SW5       30.04F HX  90
6HR MIN TEMP:  86; 6HR MAX TEMP:  97;

SHERIDAN       FAIR      90  53  28 S5        30.06F
6HR MIN TEMP:  88; 6HR MAX TEMP:  95;

BUFFALO        FAIR      87  49  26 NW3       30.16F
6HR MIN TEMP:  85; 6HR MAX TEMP:  89;

GILLETTE       FAIR      88  52  29 N6        30.10F
6HR MIN TEMP:  84; 6HR MAX TEMP:  90;

HULETT         FAIR      86  50  28 CALM      30.11F
NEWCASTLE      FAIR      88  41  19 MISG      30.11F

$$
WYZ014>020-022>026-101>103-300100-
CENTRAL WYOMING

CITY           SKY/WX    TMP DP  RH WIND       PRES   REMARKS
BIG PINEY      FAIR      82  53  36 W9        30.29F
6HR MIN TEMP:  79; 6HR MAX TEMP:  88;

PINEDALE       FAIR      86  32  14 SW6       30.29F
DUBOIS         FAIR      79  39  24 SE13G24   30.29F
LANDER         FAIR      90  46  21 E10       30.15F
6HR MIN TEMP:  83; 6HR MAX TEMP:  92;

RIVERTON       FAIR      89  38  16 CALM      30.17F
6HR MIN TEMP:  83; 6HR MAX TEMP:  91;

CASPER         FAIR      89  35  14 N6        30.18F
6HR MIN TEMP:  85; 6HR MAX TEMP:  92;

DOUGLAS        FAIR      89  42  19 N12       30.17S
6HR MIN TEMP:  84; 6HR MAX TEMP:  91;


$$
WYZ021-027>030-104>119-300100-
SOUTHERN WYOMING

CITY           SKY/WX    TMP DP  RH WIND       PRES   REMARKS
EVANSTON       FAIR      87  37  17 E5        30.27F
6HR MIN TEMP:  83; 6HR MAX TEMP:  91;

KEMMERER       FAIR      90  34  13 E3        30.30F
FORT BRIDGER   CLEAR     91  36  14 SE8       30.30F
ROCK SPRINGS   NOT AVBL
DIXON          FAIR      89  34  14 NE15G21   30.27S
RAWLINS        FAIR      86  36  16 NE14      30.29F
6HR MIN TEMP:  80; 6HR MAX TEMP:  88;

SARATOGA       FAIR      82  39  21 N8G16     30.31F
LARAMIE        FAIR      79  45  29 NE14      30.33F
6HR MIN TEMP:  75; 6HR MAX TEMP:  81;

CHEYENNE       FAIR      83  39  21 NE12      30.26S
6HR MIN TEMP:  78; 6HR MAX TEMP:  85;

TORRINGTON     PTSUNNY   89  50  26 CALM      30.09S
6HR MIN TEMP:  82; 6HR MAX TEMP:  92;

PINE BLUFFS    FAIR      86  41  20 N9        30.19S

$$



USA.gov is the U.S. government's official web portal to all federal, state and local government web resources and services.